Flag for Montenegro Weather past 2 weeks in Nikšić, Montenegro

Now
35 °F

Overcast.


Feels Like: 31 °F
Forecast: 23 / 40 °F
Wind: 5 mph from North

Location: Niksic

Current Time: Jan 26, 2015 at 12:02:32 AM

Latest Report: Jan 25, 2015 at 10:00 PM


Visibility: 13 mi

Pressure: 30.03 "Hg

Humidity: 77%

Dew point: 28 °F

Location of NikšićLocation

Historic Weather in Nikšić — Graph

°F

Nikšić temperature yesterday

Maximum temperature yesterday: 41 °F (at 2:00 PM)
Minimum temperature yesterday: 35 °F (at 10:00 PM)
Average temperature yesterday: 38 °F

Past Weeks' High & Low Weather Summary

 TemperatureHumidityPressure
High53 °F (Jan 15, 3:00 PM)100% (Jan 11, 7:00 AM)30.56 "Hg (Jan 11, 7:00 AM)
Low20 °F (Jan 14, 7:00 AM)33% (Jan 14, 2:00 PM)29.64 "Hg (Jan 24, 2:00 PM)
Average39 °F89%30.07 "Hg
* Reported Jan 11 7:00 AM — Jan 25 10:00 PM, Nikšić, Weather by CustomWeather, © 2014

Note: Actual official high and low records may vary slightly from our data, if they occured in-between our weather recording intervals... More about our weather records

Advertising

Nikšić weather history for previous 24 hours

 ConditionsComfort  
Time TempWeatherWind HumidityBarometerVisibility
10:00 PM
Jan 25
35 °FOvercast.5 mph77%30.03 "Hg12 mi
9:00 PM36 °FOvercast.6 mph74%30.02 "Hg12 mi
8:00 PM36 °FOvercast.5 mph71%30.01 "Hg12 mi
7:00 PM36 °FOvercast.5 mph70%30.00 "Hg12 mi
6:00 PM37 °FOvercast.6 mph70%29.97 "Hg12 mi
5:00 PM38 °FOvercast.5 mph67%29.95 "Hg12 mi
4:00 PM39 °FOvercast.6 mph59%29.92 "Hg12 mi
3:00 PM40 °FOvercast.3 mph63%29.89 "Hg12 mi
2:00 PM41 °FOvercast.5 mph58%29.87 "Hg12 mi
1:00 PM40 °FOvercast.8 mph62%29.87 "Hg12 mi
12:00 PM39 °FOvercast.3 mph69%29.88 "Hg12 mi
11:00 AM37 °FOvercast.3 mph85%29.90 "Hg12 mi
10:00 AM37 °FOvercast.5 mph86%29.88 "Hg12 mi
9:00 AM37 °FOvercast.6 mph79%29.85 "Hg12 mi
8:00 AM37 °FOvercast.6 mph77%29.82 "Hg12 mi
7:00 AM38 °FOvercast.6 mph76%29.80 "Hg12 mi
6:00 AM36 °FPassing clouds.6 mph100%29.79 "Hg12 mi
5:00 AM38 °FPassing clouds.3 mph83%29.77 "Hg12 mi
4:00 AM38 °FPassing clouds.3 mph85%29.75 "Hg12 mi
1:00 AM39 °FPassing clouds.5 mph83%29.72 "Hg12 mi
Weather by CustomWeather, © 2014

See weather overviewHow to use our weather pages